パンスターズ彗星

C/2017 X1 ( PanSTARRS )

English version
Home page
Updated on September 23, 2018

---------------------------------------------------------------------

・ プロフィール

発見日 2017年12月12日
発見光度 20.2等
発見者 Pan-STARRS 1 telescope (Haleakala)

・ 軌道要素

Epoch 2018 June 11.0 TT = JDT 2458280.5
T 2018 June 14.50196 TT                                 MPCW
q   4.6625820            (2000.0)            P               Q
n   0.00562436     Peri.  283.11323     -0.86073479     -0.13161862
a  31.3151040      Node   251.12729     +0.25130371     -0.94994376
e   0.8511076      Incl.   31.31095     -0.44269862     -0.28334325
P 175
From 70 observations 2017 Dec. 12-2018 July 17, mean residual 0".3.

・ 光度変化

        m1 = 9.0 + 5 logΔ + 10.0 log r

---------------------------------------------------------------------

軌道要素はM.P.E.C. 2018-S50に掲載されたものです。
光度グラフはComet for Windowsで作成したものです。

---------------------------------------------------------------------

Copyright(C) Seiichi Yoshida (comet@aerith.net). All rights reserved.